Weather in Palencia

Spain     42°00′20″N   4°31′56″W
temp.,
°C
wind,
m/s
gust,
m/s
humid.,
%
clouds,
%
prec.,
mm/h
press.,
hPa
HPBL,
m
14 may, fri
fri1423:00+9w5119331 1.1 1015338
02:00+6nnw23945 1.2 101772
05:00+4e119791 0.0 101718
08:00+5ese119538 0.0 101953
11:00+10wsw227799 0.0 1019754
14:00+15w45425 0.0 10181425
17:00+17w4642100 0.0 10161687
20:00+16ssw3756100 0.0 1015411
15 may, sat
sat1523:00+13wsw51162100 0.0 1016381
02:00+11wsw6137490 0.0 1015550
05:00+10wsw6147992 0.0 1015569
08:00+10sw61480100 0.0 1015616
11:00+14wsw81273100 0.0 1014739
14:00+18wsw91562100 0.0 10131159
17:00+20wsw101559100 0.0 10121688
20:00+18w9156687 0.0 10131272
16 may, sun
sun1623:00+14wsw8148031 0.0 1015688
02:00+13sw7138498 0.0 1015676
05:00+13sw6128185 0.0 1014820
08:00+13sw71487100 0.0 1014762
11:00+16wsw8127588 0.0 1014892
14:00+18wsw10116963 0.1 10141202
17:00+18w8106490 0.2 10141448
20:00+16w5875100 0.4 1014985
17 may, mon
mon1723:00+14w378266 0.2 1016403
02:00+12w3674100 0.2 1017255
05:00+9w367099 0.0 1018184
08:00+9n1181100 0.0 1019145
11:00+12nne2366100 0.0 1020831
14:00+17wnw35385 0.0 10201589
17:00+18wnw5627100 0.0 10191857
20:00+16wnw35415 0.0 1020540
18 may, tue
tue1823:00+9ne512775 0.0 1023290
02:00+6ne39875 0.0 1024196
05:00+5ene3689100 0.0 1025135
08:00+6ene2285100 0.0 102595
11:00+13s225779 0.0 1023472
14:00+18sw3338100 0.0 10221222
17:00+20wsw4438100 0.0 10201447
20:00+18wsw3551100 0.0 1020421